| time (UTC) | temp F | wind direction | speed knots | gust knots | rain 1hr in | rain 24hr in | rain mn in | humidity % | barometer mb |
| 20260504173046 | 49 | 356 | 3.5 | 6.1 | 0.00 | 0.00 | 0.00 | 52 | 1016.1 |
| 20260504171546 | 49 | 222 | 0.9 | 4.3 | 0.00 | 0.00 | 0.00 | 55 | 1016.1 |
| 20260504081547 | 45 | 321 | 7.0 | 9.6 | 0.00 | 0.00 | 0.00 | 55 | 1015.9 |
| 20260504044547 | 53 | 283 | 2.6 | 5.2 | 0.00 | 0.00 | 0.00 | 43 | 1009.1 |
| 20260504043108 | 53 | 276 | 3.5 | 6.1 | 0.00 | 0.00 | 0.00 | 42 | 1009.1 |
| 20260504041545 | 54 | 277 | 4.3 | 7.8 | 0.00 | 0.00 | 0.00 | 40 | 1009.1 |
| 20260504040044 | 54 | 266 | 4.3 | 6.1 | 0.00 | 0.00 | 0.00 | 41 | 1009.1 |
| 20260504034547 | 55 | 267 | 5.2 | 7.8 | 0.00 | 0.00 | 0.00 | 41 | 1009.0 |
| 20260504033040 | 56 | 277 | 3.5 | 5.2 | 0.00 | 0.00 | 0.00 | 40 | 1008.9 |
| 20260504031550 | 58 | 269 | 2.6 | 5.2 | 0.00 | 0.00 | 0.00 | 37 | 1008.8 |
| 20260504030101 | 59 | 290 | 4.3 | 6.1 | 0.00 | 0.00 | 0.00 | 34 | 1008.8 |
| 20260504024541 | 58 | 302 | 4.3 | 6.1 | 0.00 | 0.00 | 0.00 | 37 | 1008.7 |
| 20260504023043 | 61 | 293 | 3.5 | 6.1 | 0.00 | 0.00 | 0.00 | 34 | 1008.6 |
| 20260504021547 | 64 | 301 | 3.5 | 5.2 | 0.00 | 0.00 | 0.00 | 32 | 1008.7 |
| 20260504020040 | 68 | 295 | 2.6 | 5.2 | 0.00 | 0.00 | 0.00 | 27 | 1008.5 |
| 20260504014546 | 69 | 291 | 5.2 | 8.7 | 0.00 | 0.00 | 0.00 | 23 | 1008.6 |
| 20260504013051 | 70 | 311 | 6.1 | 10.4 | 0.00 | 0.00 | 0.00 | 22 | 1008.6 |
| 20260504011544 | 71 | 293 | 7.0 | 12.2 | 0.00 | 0.00 | 0.00 | 19 | 1008.7 |
| 20260504010054 | 71 | 324 | 7.0 | 10.4 | 0.00 | 0.00 | 0.00 | 21 | 1008.7 |
| 20260504004546 | 71 | 307 | 5.2 | 13.9 | 0.00 | 0.00 | 0.00 | 22 | 1008.8 |
| 20260504003040 | 71 | 304 | 7.8 | 10.4 | 0.00 | 0.00 | 0.00 | 18 | 1009.0 |
| 20260504001553 | 72 | 309 | 6.1 | 11.3 | 0.00 | 0.00 | 0.00 | 17 | 1009.0 |
| 20260504000042 | 72 | 252 | 0.9 | 10.4 | 0.00 | 0.00 | 0.00 | 15 | 1009.0 |
| 20260503234544 | 73 | 284 | 4.3 | 13.9 | 0.00 | 0.00 | 0.00 | 16 | 1009.0 |
| 20260503233040 | 73 | 301 | 7.0 | 10.4 | 0.00 | 0.00 | 0.00 | 16 | 1009.1 |
| 20260503231543 | 73 | 297 | 7.0 | 12.2 | 0.00 | 0.00 | 0.00 | 15 | 1009.1 |
| 20260503230104 | 73 | 272 | 2.6 | 9.6 | 0.00 | 0.00 | 0.00 | 14 | 1009.0 |
| 20260503224546 | 73 | 321 | 7.8 | 11.3 | 0.00 | 0.00 | 0.00 | 15 | 1009.1 |
| 20260503223102 | 73 | 340 | 5.2 | 13.0 | 0.00 | 0.00 | 0.00 | 15 | 1009.3 |
| 20260503221551 | 72 | 302 | 4.3 | 10.4 | 0.00 | 0.00 | 0.00 | 14 | 1009.6 |
| 20260503220050 | 72 | 308 | 7.0 | 14.8 | 0.00 | 0.00 | 0.00 | 13 | 1010.0 |
| 20260503214554 | 72 | 331 | 8.7 | 13.9 | 0.00 | 0.00 | 0.00 | 15 | 1010.0 |
| 20260503213046 | 72 | 94 | 0.9 | 9.6 | 0.00 | 0.00 | 0.00 | 15 | 1010.2 |
| 20260503211545 | 72 | 304 | 7.0 | 13.9 | 0.00 | 0.00 | 0.00 | 16 | 1010.6 |
| 20260503210047 | 72 | 322 | 5.2 | 13.9 | 0.00 | 0.00 | 0.00 | 17 | 1010.7 |
| 20260503204544 | 71 | 298 | 6.1 | 11.3 | 0.00 | 0.00 | 0.00 | 18 | 1010.8 |
| 20260503203041 | 71 | 328 | 5.2 | 11.3 | 0.00 | 0.00 | 0.00 | 20 | 1010.9 |
| 20260503201552 | 71 | 278 | 7.0 | 12.2 | 0.00 | 0.00 | 0.00 | 20 | 1011.1 |
| 20260503200046 | 71 | 290 | 6.1 | 11.3 | 0.00 | 0.00 | 0.00 | 19 | 1011.2 |
| 20260503194606 | 71 | 325 | 5.2 | 9.6 | 0.00 | 0.00 | 0.00 | 22 | 1011.4 |
| 20260503193049 | 70 | 316 | 4.3 | 13.9 | 0.00 | 0.00 | 0.00 | 20 | 1011.6 |
| 20260503191542 | 70 | 328 | 2.6 | 13.9 | 0.00 | 0.00 | 0.00 | 21 | 1011.9 |
| 20260503190045 | 69 | 300 | 7.8 | 12.2 | 0.00 | 0.00 | 0.00 | 22 | 1012.1 |
| 20260503184544 | 70 | 287 | 1.7 | 6.1 | 0.00 | 0.00 | 0.00 | 23 | 1012.1 |
| 20260503183050 | 69 | 259 | 7.8 | 13.0 | 0.00 | 0.00 | 0.00 | 23 | 1012.2 |
| 20260503181558 | 68 | 295 | 3.5 | 14.8 | 0.00 | 0.00 | 0.00 | 26 | 1012.6 |
| 20260503180049 | 68 | 318 | 2.6 | 8.7 | 0.00 | 0.00 | 0.00 | 25 | 1012.7 |
| 20260503174548 | 67 | 304 | 7.8 | 12.2 | 0.00 | 0.00 | 0.00 | 25 | 1012.8 |